AVA9348 SKRG-SKSP

Flight info

Callsign AVA9348
Flight time 1h 29m
Altitude 38000
Route IBDAM1A NENES A323 KOTIN UN653 TOSAV TOSAV2A
Aircraft A320/M-SDE3FGHIRWY/LB1

Departure

Time 2026-05-09 11:38
Airport Jose Maria Córdova International Airport (SKRG)

Arrival

Time 2026-05-09 13:08
Airport Gustavo Rojas Pinilla International Airport (SKSP)
Time Latitude Longitude Altitude Speed Heading
2026-05-09 10:51 6.16951 -75.42873 7016 ft 0 kts 346°
2026-05-09 11:24 6.16949 -75.42872 7016 ft 2 kts 346°
2026-05-09 11:24 6.16929 -75.42867 7016 ft 3 kts 347°
2026-05-09 11:24 6.16908 -75.42866 7016 ft 3 kts 31°
2026-05-09 11:25 6.16896 -75.42882 7016 ft 3 kts 77°
2026-05-09 11:25 6.16893 -75.42899 7016 ft 0 kts 76°
2026-05-09 11:27 6.16893 -75.42898 7016 ft 1 kts 76°
2026-05-09 11:27 6.16897 -75.42881 7020 ft 4 kts 77°
2026-05-09 11:28 6.16906 -75.42842 7020 ft 7 kts 76°
2026-05-09 11:28 6.16921 -75.42789 7016 ft 9 kts 71°
2026-05-09 11:28 6.16949 -75.42733 7021 ft 9 kts 57°
2026-05-09 11:28 6.16996 -75.42684 7016 ft 10 kts 39°
2026-05-09 11:29 6.17046 -75.42632 7017 ft 11 kts 69°
2026-05-09 11:29 6.17016 -75.42573 7019 ft 10 kts 147°
2026-05-09 11:29 6.16951 -75.42535 7018 ft 12 kts 150°
2026-05-09 11:29 6.16893 -75.42502 7020 ft 4 kts 150°
2026-05-09 11:30 6.16856 -75.42486 7017 ft 8 kts 167°
2026-05-09 11:30 6.16793 -75.42485 7013 ft 11 kts 180°
2026-05-09 11:30 6.16703 -75.42485 7011 ft 15 kts 180°
2026-05-09 11:30 6.16583 -75.42485 7003 ft 19 kts 179°
2026-05-09 11:31 6.16444 -75.42483 6993 ft 17 kts 180°
2026-05-09 11:31 6.16340 -75.42483 6991 ft 13 kts 179°
2026-05-09 11:31 6.16238 -75.42482 6983 ft 14 kts 179°
2026-05-09 11:31 6.16130 -75.42481 6985 ft 15 kts 179°
2026-05-09 11:32 6.16022 -75.42481 6983 ft 14 kts 179°
2026-05-09 11:32 6.15926 -75.42480 6982 ft 13 kts 179°
2026-05-09 11:32 6.15834 -75.42480 6981 ft 13 kts 179°
2026-05-09 11:32 6.15741 -75.42479 6980 ft 13 kts 180°
2026-05-09 11:33 6.15652 -75.42478 6980 ft 13 kts 179°
2026-05-09 11:33 6.15568 -75.42478 6979 ft 11 kts 180°
2026-05-09 11:33 6.15431 -75.42476 6979 ft 8 kts 179°
2026-05-09 11:34 6.15382 -75.42476 6979 ft 8 kts 180°
2026-05-09 11:34 6.15310 -75.42476 6978 ft 12 kts 180°
2026-05-09 11:34 6.15229 -75.42476 6978 ft 11 kts 179°
2026-05-09 11:34 6.15155 -75.42475 6978 ft 10 kts 179°
2026-05-09 11:35 6.15095 -75.42475 6977 ft 8 kts 179°
2026-05-09 11:35 6.15047 -75.42474 6977 ft 8 kts 179°
2026-05-09 11:35 6.14970 -75.42474 6977 ft 14 kts 179°
2026-05-09 11:35 6.14890 -75.42491 6977 ft 11 kts 194°
2026-05-09 11:36 6.14836 -75.42468 6975 ft 8 kts 121°
2026-05-09 11:36 6.14831 -75.42423 6977 ft 5 kts 87°
2026-05-09 11:36 6.14838 -75.42394 6975 ft 3 kts 62°
2026-05-09 11:36 6.14852 -75.42379 6975 ft 4 kts 40°
2026-05-09 11:37 6.14889 -75.42358 6976 ft 9 kts 29°
2026-05-09 11:37 6.14954 -75.42319 6977 ft 14 kts 31°
2026-05-09 11:37 6.15077 -75.42305 6978 ft 31 kts 360°
2026-05-09 11:37 6.15545 -75.42308 6981 ft 101 kts 360°
2026-05-09 11:38 6.16445 -75.42313 6993 ft 155 kts 359°
2026-05-09 11:38 6.17668 -75.42319 7162 ft 188 kts
2026-05-09 11:38 6.18959 -75.42304 8026 ft 184 kts
2026-05-09 11:38 6.20242 -75.42260 8582 ft 186 kts
2026-05-09 11:39 6.21550 -75.42198 9033 ft 189 kts
2026-05-09 11:39 6.22747 -75.41748 9486 ft 183 kts 45°
2026-05-09 11:39 6.23446 -75.40728 9948 ft 176 kts 78°
2026-05-09 11:40 6.22819 -75.38413 10398 ft 195 kts 131°
2026-05-09 11:40 6.21899 -75.37352 10640 ft 206 kts 131°
2026-05-09 11:40 6.20960 -75.36270 11016 ft 210 kts 131°
2026-05-09 11:40 6.19985 -75.35156 11443 ft 212 kts 135°
2026-05-09 11:41 6.18693 -75.34460 11837 ft 217 kts 172°
2026-05-09 11:41 6.17207 -75.34739 12183 ft 228 kts 208°
2026-05-09 11:41 6.16111 -75.35975 12312 ft 250 kts 240°
2026-05-09 11:41 6.15368 -75.37628 12439 ft 270 kts 247°
2026-05-09 11:42 6.14695 -75.39481 12584 ft 294 kts 249°
2026-05-09 11:42 6.14017 -75.41458 12860 ft 310 kts 250°
2026-05-09 11:42 6.13316 -75.43531 13424 ft 316 kts 250°
2026-05-09 11:42 6.12616 -75.45638 14022 ft 319 kts 251°
2026-05-09 11:43 6.11903 -75.47763 14588 ft 323 kts 250°
2026-05-09 11:43 6.11188 -75.49902 15190 ft 324 kts 253°
2026-05-09 11:43 6.10937 -75.52157 15745 ft 328 kts 271°
2026-05-09 11:43 6.11052 -75.54453 16214 ft 329 kts 272°
2026-05-09 11:44 6.11177 -75.56757 16799 ft 331 kts 272°
2026-05-09 11:44 6.11487 -75.59060 17269 ft 338 kts 283°
2026-05-09 11:44 6.12265 -75.61348 17402 ft 356 kts 294°
2026-05-09 11:44 6.13545 -75.63543 17525 ft 372 kts 303°
2026-05-09 11:45 6.14985 -75.65728 17659 ft 387 kts 303°
2026-05-09 11:45 6.16505 -75.68055 17790 ft 399 kts 303°
2026-05-09 11:45 6.18022 -75.70386 18123 ft 406 kts 302°
2026-05-09 11:45 6.19573 -75.72775 18526 ft 409 kts 302°
2026-05-09 11:46 6.21131 -75.75178 18930 ft 410 kts 302°
2026-05-09 11:46 6.22691 -75.77590 19302 ft 412 kts 302°
2026-05-09 11:46 6.24262 -75.80015 19655 ft 416 kts 302°
2026-05-09 11:46 6.25853 -75.82458 20004 ft 419 kts 303°
2026-05-09 11:47 6.27472 -75.84871 20351 ft 422 kts 303°
2026-05-09 11:47 6.29146 -75.87308 20731 ft 424 kts 304°
2026-05-09 11:47 6.30841 -75.89747 21074 ft 426 kts 304°
2026-05-09 11:47 6.32544 -75.92198 21431 ft 429 kts 304°
2026-05-09 11:48 6.34260 -75.94678 21761 ft 432 kts 304°
2026-05-09 11:48 6.35979 -75.97171 22119 ft 434 kts 304°
2026-05-09 11:48 6.37682 -75.99648 22461 ft 437 kts 303°
2026-05-09 11:48 6.39411 -76.02173 22788 ft 439 kts 303°
2026-05-09 11:49 6.41151 -76.04715 23127 ft 442 kts 303°
2026-05-09 11:49 6.42894 -76.07266 23446 ft 444 kts 303°
2026-05-09 11:49 6.44651 -76.09836 23725 ft 446 kts 303°
2026-05-09 11:49 6.46410 -76.12408 24000 ft 448 kts 303°
2026-05-09 11:50 6.48178 -76.14992 24276 ft 450 kts 303°
2026-05-09 11:50 6.49958 -76.17595 24527 ft 452 kts 303°
2026-05-09 11:50 6.51731 -76.20182 24801 ft 454 kts 303°
2026-05-09 11:50 6.53634 -76.22724 25054 ft 456 kts 310°
2026-05-09 11:51 6.55874 -76.24999 25344 ft 458 kts 315°
2026-05-09 11:51 6.58178 -76.27221 25640 ft 459 kts 315°
2026-05-09 11:51 6.60491 -76.29451 25892 ft 460 kts 315°
2026-05-09 11:51 6.62809 -76.31688 26168 ft 462 kts 315°
2026-05-09 11:52 6.65103 -76.33903 26432 ft 463 kts 315°
2026-05-09 11:52 6.67432 -76.36159 26678 ft 465 kts 315°
2026-05-09 11:52 6.69764 -76.38419 26950 ft 466 kts 315°
2026-05-09 11:52 6.72114 -76.40696 27211 ft 468 kts 315°
2026-05-09 11:53 6.74467 -76.42973 27467 ft 469 kts 315°
2026-05-09 11:53 6.76797 -76.45234 27736 ft 471 kts 315°
2026-05-09 11:53 6.79166 -76.47530 28011 ft 472 kts 315°
2026-05-09 11:53 6.81536 -76.49825 28268 ft 473 kts 315°
2026-05-09 11:54 6.83917 -76.52126 28491 ft 474 kts 315°
2026-05-09 11:54 6.86302 -76.54430 28772 ft 475 kts 315°
2026-05-09 11:54 6.88677 -76.56731 29146 ft 473 kts 315°
2026-05-09 11:54 6.91015 -76.58999 29512 ft 472 kts 315°
2026-05-09 11:55 6.93376 -76.61289 29876 ft 470 kts 315°
2026-05-09 11:56 7.05113 -76.72683 31304 ft 467 kts 316°
2026-05-09 11:56 7.07463 -76.74956 31591 ft 467 kts 316°
2026-05-09 11:56 7.09803 -76.77219 31879 ft 467 kts 316°
2026-05-09 11:57 7.12147 -76.79490 32173 ft 466 kts 316°
2026-05-09 11:57 7.14454 -76.81731 32451 ft 466 kts 316°
2026-05-09 11:57 7.16790 -76.84001 32757 ft 466 kts 316°
2026-05-09 11:57 7.19126 -76.86276 33081 ft 465 kts 317°
2026-05-09 11:58 7.21454 -76.88541 33319 ft 466 kts 316°
2026-05-09 11:58 7.23795 -76.90819 33567 ft 467 kts 316°
2026-05-09 11:58 7.26138 -76.93095 33842 ft 467 kts 317°
2026-05-09 11:58 7.28482 -76.95368 34110 ft 467 kts 317°
2026-05-09 11:59 7.30822 -76.97639 34392 ft 465 kts 316°
2026-05-09 11:59 7.33125 -76.99876 34677 ft 464 kts 316°
2026-05-09 11:59 7.35447 -77.02129 34959 ft 463 kts 316°
2026-05-09 11:59 7.37765 -77.04374 35231 ft 461 kts 316°
2026-05-09 12:00 7.40076 -77.06618 35502 ft 460 kts 316°
2026-05-09 12:00 7.42377 -77.08857 35772 ft 458 kts 316°
2026-05-09 12:00 7.44669 -77.11090 36025 ft 457 kts 316°
2026-05-09 12:00 7.46949 -77.13308 36269 ft 455 kts 316°
2026-05-09 12:01 7.49200 -77.15496 36492 ft 454 kts 316°
2026-05-09 12:01 7.51476 -77.17710 36708 ft 454 kts 316°
2026-05-09 12:01 7.53744 -77.19918 36929 ft 453 kts 316°
2026-05-09 12:01 7.56014 -77.22127 37147 ft 452 kts 316°
2026-05-09 12:02 7.58269 -77.24323 37387 ft 450 kts 316°
2026-05-09 12:02 7.60521 -77.26529 37615 ft 450 kts 316°
2026-05-09 12:02 7.62773 -77.28727 37798 ft 451 kts 316°
2026-05-09 12:03 7.67265 -77.33099 37836 ft 451 kts 316°
2026-05-09 12:03 7.71789 -77.37498 37855 ft 450 kts 316°
2026-05-09 12:04 7.76216 -77.41981 37852 ft 450 kts 313°
2026-05-09 12:04 7.80381 -77.46657 37860 ft 449 kts 312°
2026-05-09 12:05 7.84505 -77.51392 37847 ft 448 kts 313°
2026-05-09 12:05 7.88686 -77.56080 37856 ft 448 kts 314°
2026-05-09 12:06 7.92904 -77.60734 37864 ft 448 kts 313°
2026-05-09 12:06 7.97082 -77.65354 37872 ft 448 kts 313°
2026-05-09 12:07 8.01280 -77.70019 37859 ft 448 kts 313°
2026-05-09 12:07 8.05451 -77.74671 37870 ft 447 kts 313°
2026-05-09 12:08 8.09606 -77.79302 37871 ft 447 kts 313°
2026-05-09 12:08 8.13795 -77.83963 37872 ft 447 kts 313°
2026-05-09 12:09 8.17977 -77.88618 37852 ft 447 kts 313°
2026-05-09 12:09 8.22169 -77.93280 37845 ft 448 kts 312°
2026-05-09 12:10 8.30524 -78.02603 37844 ft 449 kts 312°
2026-05-09 12:11 8.34715 -78.07277 37841 ft 449 kts 312°
2026-05-09 12:11 8.38203 -78.11164 37848 ft 449 kts 312°
2026-05-09 12:12 8.42674 -78.15582 37854 ft 448 kts 320°
2026-05-09 12:12 8.47473 -78.19600 37867 ft 449 kts 320°
2026-05-09 12:13 8.52213 -78.23586 37861 ft 444 kts 321°
2026-05-09 12:13 8.56988 -78.27611 37845 ft 446 kts 320°
2026-05-09 12:14 8.61754 -78.31632 37810 ft 446 kts 320°
2026-05-09 12:14 8.66492 -78.35608 37826 ft 446 kts 320°
2026-05-09 12:15 8.71326 -78.39669 37829 ft 451 kts 320°
2026-05-09 12:15 8.76132 -78.43685 37841 ft 449 kts 320°
2026-05-09 12:16 8.80944 -78.47760 37847 ft 451 kts 320°
2026-05-09 12:16 8.85778 -78.51827 37858 ft 451 kts 320°
2026-05-09 12:17 8.90576 -78.55827 37845 ft 449 kts 320°
2026-05-09 12:17 8.95399 -78.59881 37848 ft 451 kts 320°
2026-05-09 12:18 9.00217 -78.63946 37839 ft 451 kts 319°
2026-05-09 12:18 9.05031 -78.68028 37839 ft 452 kts 319°
2026-05-09 12:19 9.09868 -78.72111 37851 ft 453 kts 320°
2026-05-09 12:19 9.14699 -78.76177 37847 ft 454 kts 319°
2026-05-09 12:20 9.19532 -78.80264 37845 ft 455 kts 320°
2026-05-09 12:20 9.24408 -78.84363 37858 ft 455 kts 320°
2026-05-09 12:21 9.29281 -78.88468 37865 ft 454 kts 319°
2026-05-09 12:21 9.34097 -78.92543 37882 ft 452 kts 319°
2026-05-09 12:22 9.38925 -78.96624 37882 ft 450 kts 319°
2026-05-09 12:22 9.43730 -79.00681 37880 ft 448 kts 319°
2026-05-09 12:23 9.48493 -79.04708 37870 ft 448 kts 319°
2026-05-09 12:23 9.53276 -79.08765 37866 ft 448 kts 319°
2026-05-09 12:24 9.58061 -79.12820 37865 ft 448 kts 319°
2026-05-09 12:24 9.62835 -79.16859 37866 ft 449 kts 319°
2026-05-09 12:25 9.67642 -79.20924 37867 ft 449 kts 319°
2026-05-09 12:25 9.72427 -79.24977 37886 ft 447 kts 319°
2026-05-09 12:26 9.77155 -79.28988 37886 ft 445 kts 319°
2026-05-09 12:26 9.81920 -79.33029 37889 ft 445 kts 319°
2026-05-09 12:27 9.86673 -79.37060 37886 ft 444 kts 319°
2026-05-09 12:27 9.91415 -79.41076 37875 ft 444 kts 319°
2026-05-09 12:28 9.96157 -79.45095 37878 ft 444 kts 319°
2026-05-09 12:28 10.00874 -79.49101 37879 ft 445 kts 319°
2026-05-09 12:29 10.05627 -79.53144 37881 ft 445 kts 320°
2026-05-09 12:29 10.10364 -79.57170 37897 ft 443 kts 320°
2026-05-09 12:30 10.15083 -79.61181 37897 ft 445 kts 319°
2026-05-09 12:30 10.22161 -79.67191 37901 ft 444 kts 319°
2026-05-09 12:31 10.29246 -79.73226 37898 ft 442 kts 320°
2026-05-09 12:32 10.33931 -79.77223 37895 ft 441 kts 320°
2026-05-09 12:32 10.38635 -79.81227 37893 ft 440 kts 320°
2026-05-09 12:33 10.43304 -79.85211 37886 ft 440 kts 320°
2026-05-09 12:33 10.48002 -79.89223 37894 ft 440 kts 320°
2026-05-09 12:34 10.52685 -79.93220 37895 ft 439 kts 320°
2026-05-09 12:34 10.57363 -79.97224 37884 ft 439 kts 320°
2026-05-09 12:35 10.62021 -80.01214 37887 ft 440 kts 320°
2026-05-09 12:35 10.66707 -80.05219 37889 ft 439 kts 320°
2026-05-09 12:36 10.71385 -80.09221 37889 ft 439 kts 320°
2026-05-09 12:36 10.76062 -80.13218 37896 ft 439 kts 320°
2026-05-09 12:37 10.80706 -80.17193 37887 ft 439 kts 320°
2026-05-09 12:37 10.85389 -80.21212 37889 ft 440 kts 320°
2026-05-09 12:38 10.90066 -80.25222 37899 ft 439 kts 320°
2026-05-09 12:38 10.94747 -80.29241 37896 ft 440 kts 320°
2026-05-09 12:39 10.99409 -80.33228 37909 ft 441 kts 320°
2026-05-09 12:39 11.04100 -80.37254 37912 ft 440 kts 320°
2026-05-09 12:40 11.08792 -80.41285 37905 ft 441 kts 320°
2026-05-09 12:40 11.13453 -80.45288 37827 ft 441 kts 320°
2026-05-09 12:40 11.15800 -80.47303 37556 ft 440 kts 321°
2026-05-09 12:41 11.18143 -80.49316 37303 ft 440 kts 321°
2026-05-09 12:41 11.20488 -80.51332 37042 ft 442 kts 320°
2026-05-09 12:41 11.22840 -80.53357 36790 ft 442 kts 320°
2026-05-09 12:41 11.25186 -80.55379 36540 ft 442 kts 321°
2026-05-09 12:42 11.27540 -80.57403 36293 ft 444 kts 321°
2026-05-09 12:42 11.29904 -80.59433 36047 ft 445 kts 321°
2026-05-09 12:42 11.32245 -80.61445 35809 ft 447 kts 321°
2026-05-09 12:42 11.34622 -80.63489 35566 ft 447 kts 321°
2026-05-09 12:43 11.37006 -80.65542 35329 ft 448 kts 321°
2026-05-09 12:43 11.39385 -80.67592 35111 ft 447 kts 321°
2026-05-09 12:43 11.41769 -80.69644 34869 ft 449 kts 321°
2026-05-09 12:43 11.44165 -80.71710 34420 ft 451 kts 321°
2026-05-09 12:44 11.46555 -80.73773 33482 ft 456 kts 321°
2026-05-09 12:44 11.48996 -80.75877 32493 ft 461 kts 322°
2026-05-09 12:44 11.51465 -80.78007 31513 ft 466 kts 321°
2026-05-09 12:44 11.53957 -80.80159 30481 ft 473 kts 322°
2026-05-09 12:45 11.56500 -80.82354 29246 ft 481 kts 321°
2026-05-09 12:45 11.59039 -80.84548 28102 ft 487 kts 321°
2026-05-09 12:45 11.61637 -80.86792 26913 ft 492 kts 321°
2026-05-09 12:45 11.64271 -80.89063 26081 ft 491 kts 322°
2026-05-09 12:46 11.66864 -80.91303 25290 ft 487 kts 321°
2026-05-09 12:46 11.69265 -80.93750 24481 ft 486 kts 311°
2026-05-09 12:46 11.71246 -80.96537 23681 ft 484 kts 304°
2026-05-09 12:46 11.73078 -80.99364 22822 ft 483 kts 304°
2026-05-09 12:47 11.74927 -81.02215 22098 ft 478 kts 304°
2026-05-09 12:47 11.76762 -81.05034 21388 ft 473 kts 304°
2026-05-09 12:47 11.78578 -81.07821 20686 ft 469 kts 304°
2026-05-09 12:47 11.80375 -81.10584 20017 ft 466 kts 304°
2026-05-09 12:48 11.82160 -81.13332 19377 ft 463 kts 304°
2026-05-09 12:48 11.83915 -81.16034 18756 ft 459 kts 304°
2026-05-09 12:48 11.85671 -81.18743 18159 ft 455 kts 304°
2026-05-09 12:48 11.87406 -81.21419 17533 ft 450 kts 304°
2026-05-09 12:49 11.89123 -81.24064 16976 ft 444 kts 304°
2026-05-09 12:49 11.90826 -81.26693 16411 ft 438 kts 304°
2026-05-09 12:49 11.92500 -81.29274 15879 ft 433 kts 304°
2026-05-09 12:49 11.94155 -81.31823 15314 ft 428 kts 305°
2026-05-09 12:50 11.95794 -81.34346 14748 ft 425 kts 305°
2026-05-09 12:50 11.97421 -81.36852 14168 ft 422 kts 305°
2026-05-09 12:50 11.99018 -81.39318 13555 ft 419 kts 305°
2026-05-09 12:50 12.00619 -81.41797 12912 ft 416 kts 305°
2026-05-09 12:51 12.02205 -81.44257 12275 ft 413 kts 305°
2026-05-09 12:51 12.03784 -81.46703 11632 ft 410 kts 305°
2026-05-09 12:51 12.05350 -81.49122 10986 ft 407 kts 305°
2026-05-09 12:51 12.06893 -81.51507 10730 ft 393 kts 305°
2026-05-09 12:52 12.08371 -81.53793 10613 ft 377 kts 305°
2026-05-09 12:52 12.09849 -81.55926 10492 ft 360 kts 313°
2026-05-09 12:52 12.11584 -81.57633 10397 ft 342 kts 324°
2026-05-09 12:52 12.13431 -81.59145 10283 ft 330 kts 324°
2026-05-09 12:53 12.15167 -81.60576 10161 ft 319 kts 324°
2026-05-09 12:53 12.16872 -81.61982 9993 ft 311 kts 324°
2026-05-09 12:53 12.18559 -81.63371 9608 ft 311 kts 323°
2026-05-09 12:53 12.20229 -81.64747 9302 ft 305 kts 324°
2026-05-09 12:54 12.21880 -81.66102 8884 ft 305 kts 324°
2026-05-09 12:54 12.23532 -81.67456 8487 ft 304 kts 324°
2026-05-09 12:54 12.25180 -81.68809 8117 ft 302 kts 324°
2026-05-09 12:54 12.26786 -81.70132 7755 ft 299 kts 324°
2026-05-09 12:55 12.28406 -81.71464 7378 ft 298 kts 324°
2026-05-09 12:55 12.30020 -81.72794 7012 ft 297 kts 324°
2026-05-09 12:55 12.31622 -81.74117 6642 ft 294 kts 324°
2026-05-09 12:55 12.33207 -81.75427 6285 ft 291 kts 324°
2026-05-09 12:56 12.34782 -81.76728 5868 ft 291 kts 324°
2026-05-09 12:56 12.36356 -81.78028 5465 ft 290 kts 324°
2026-05-09 12:56 12.37900 -81.79300 5098 ft 288 kts 324°
2026-05-09 12:56 12.39463 -81.80579 4734 ft 285 kts 324°
2026-05-09 12:57 12.41063 -81.81820 4043 ft 292 kts 332°
2026-05-09 12:57 12.42817 -81.82858 3684 ft 288 kts 333°
2026-05-09 12:57 12.44518 -81.83876 3461 ft 278 kts 333°
2026-05-09 12:57 12.45606 -81.84533 3343 ft 270 kts 333°
2026-05-09 12:58 12.47206 -81.85493 3147 ft 262 kts 335°
2026-05-09 12:58 12.48870 -81.85979 2972 ft 241 kts
2026-05-09 12:58 12.50632 -81.84994 2920 ft 212 kts 54°
2026-05-09 12:58 12.51439 -81.83737 2922 ft 210 kts 62°
2026-05-09 12:59 12.51907 -81.82867 2920 ft 211 kts 62°
2026-05-09 12:59 12.52597 -81.81546 2916 ft 210 kts 63°
2026-05-09 12:59 12.53294 -81.80219 2922 ft 210 kts 63°
2026-05-09 12:59 12.53992 -81.78924 2929 ft 210 kts 62°
2026-05-09 13:00 12.54661 -81.77604 2932 ft 208 kts 70°
2026-05-09 13:00 12.54938 -81.76195 2927 ft 198 kts 95°
2026-05-09 13:00 12.54468 -81.74914 2927 ft 193 kts 120°
2026-05-09 13:00 12.53621 -81.73848 2917 ft 195 kts 142°
2026-05-09 13:01 12.52333 -81.73426 2920 ft 202 kts 179°
2026-05-09 13:01 12.50966 -81.73842 2929 ft 210 kts 204°
2026-05-09 13:01 12.49731 -81.74682 2917 ft 216 kts 215°
2026-05-09 13:01 12.48622 -81.75710 2936 ft 216 kts 231°
2026-05-09 13:02 12.47765 -81.76985 2949 ft 218 kts 237°
2026-05-09 13:02 12.46948 -81.78303 2941 ft 219 kts 236°
2026-05-09 13:02 12.46156 -81.79631 2934 ft 219 kts 238°
2026-05-09 13:02 12.45450 -81.80989 2928 ft 218 kts 252°
2026-05-09 13:03 12.45330 -81.82526 2935 ft 220 kts 284°
2026-05-09 13:03 12.45942 -81.83911 2932 ft 212 kts 315°
2026-05-09 13:03 12.47040 -81.84885 2937 ft 207 kts 327°
2026-05-09 13:03 12.48286 -81.85579 2916 ft 201 kts 355°
2026-05-09 13:04 12.49625 -81.85456 2933 ft 192 kts 28°
2026-05-09 13:04 12.50626 -81.84621 2939 ft 186 kts 59°
2026-05-09 13:04 12.51271 -81.83499 2930 ft 181 kts 62°
2026-05-09 13:04 12.51874 -81.82408 2755 ft 172 kts 62°
2026-05-09 13:05 12.52428 -81.81352 2530 ft 166 kts 63°
2026-05-09 13:05 12.52998 -81.80342 2314 ft 162 kts 60°
2026-05-09 13:05 12.53584 -81.79369 2057 ft 156 kts 60°
2026-05-09 13:05 12.54124 -81.78458 1818 ft 145 kts 60°
2026-05-09 13:06 12.54639 -81.77604 1665 ft 140 kts 59°
2026-05-09 13:06 12.55128 -81.76763 1368 ft 137 kts 60°
2026-05-09 13:06 12.55619 -81.75941 1091 ft 134 kts 59°
2026-05-09 13:06 12.56083 -81.75106 885 ft 136 kts 60°
2026-05-09 13:07 12.56553 -81.74274 660 ft 137 kts 58°
2026-05-09 13:07 12.57040 -81.73428 439 ft 136 kts 59°
2026-05-09 13:07 12.57520 -81.72595 245 ft 137 kts 63°
2026-05-09 13:07 12.57992 -81.71762 85 ft 131 kts 62°
2026-05-09 13:08 12.58361 -81.71119 58 ft 67 kts 60°
2026-05-09 13:08 12.58514 -81.70855 50 ft 36 kts 59°
2026-05-09 13:08 12.58622 -81.70666 40 ft 26 kts 59°
2026-05-09 13:08 12.58713 -81.70507 36 ft 25 kts 60°
2026-05-09 13:09 12.58731 -81.70429 34 ft 10 kts 108°
2026-05-09 13:09 12.58714 -81.70385 34 ft 5 kts 111°
2026-05-09 13:09 12.58710 -81.70376 34 ft 0 kts 111°
2026-05-09 13:09 12.58705 -81.70362 32 ft 4 kts 107°
2026-05-09 13:10 12.58715 -81.70319 33 ft 7 kts 59°
2026-05-09 13:10 12.58721 -81.70301 31 ft 1 kts 92°
2026-05-09 13:10 12.58716 -81.70295 32 ft 3 kts 128°
2026-05-09 13:10 12.58690 -81.70281 31 ft 5 kts 147°
2026-05-09 13:11 12.58672 -81.70270 32 ft 2 kts 148°
2026-05-09 13:11 12.58671 -81.70269 32 ft 0 kts 148°